Location: Sawmill Trailhead
(33.5800°N, 116.4497°W)
Time: 11:59:47
(UTC-08:00)

Uosat F - Visible Passes

Search period start: 01 March 2017 00:00
Search period end: 11 March 2017 00:00
Orbit: 751 x 760 km, 98.8° (Epoch: 28 February)

Date Brightness Start Highest point End Pass type
(mag) Time Alt. Az. Time Alt. Az. Time Alt. Az.
02 Mar 13.9 18:37:58 10° SW 18:41:45 21° W 18:45:34 10° NW visible
03 Mar 14.4 05:11:23 10° ENE 05:14:10 15° E 05:16:57 10° SE visible
04 Mar 14.4 18:59:27 10° WSW 19:01:45 13° W 19:04:03 10° WNW visible
05 Mar 13.9 05:30:08 10° NE 05:34:09 24° E 05:38:09 10° SSE visible
05 Mar 13.1 18:17:28 10° SSW 18:22:01 34° W 18:26:36 10° NNW visible
07 Mar 13.9 18:38:09 10° SW 18:41:58 22° W 18:45:49 10° NW visible
08 Mar 14.4 05:11:39 10° ENE 05:14:22 15° E 05:17:05 10° SE visible
09 Mar 14.4 18:59:35 10° WSW 19:01:57 13° W 19:04:20 10° WNW visible
10 Mar 13.9 05:30:21 10° NE 05:34:21 23° E 05:38:19 10° SSE visible
10 Mar 13.0 18:17:40 10° SSW 18:22:14 35° W 18:26:50 10° NNW visible
